SCP
-0 -0 -0 -0 -0 -0 -0 -0 -0 -0 -0 -0 -0 -0 -0 -0 -0 0 0 0 0 -0 0 0 0 0 -0 0 0 0 0 -0 -0 0 0 -0 0 0 0 -0 0 0 0 -0 -0
-0 -0 -0 -0 -0 -0 -0 -0 -0 -0 -0 -0 -0 0 -0 0 0 -0 -0 -0 -1 -0 -0 -0 0 -0 0 0 0 0 0 -0 0 0 -0 0 0 -0 0 -0 -0 -0 0 -0 -0
-0 -0 -0 -0 -0 -0 -0 -0 -0 0 -0 -0 0 0 0 0 0 0 -0 -0 -0 -0 0 0 0 -0 0 1 0 0 0 -0 0 0 0 0 0 0 0 0 -0 -0 -0 -0 -0
0 -0 -0 -0 -0 -0 -0 -0 -0 -0 0 -0 0 0 0 0 0 0 0 -0 -0 0 0 0 0 0 1 0 0 0 0 0 0 0 0 0 0 0 0 0 0 -0 -0 -0 -0
-0 -0 -0 0 0 -0 -0 -0 -0 -0 -0 0 0 0 0 0 0 0 0 -0 0 0 0 0 0 0 0 0 0 0 0 0 0 0 0 0 0 0 0 0 0 -0 -0 -0 -0
-0 -0 -0 -0 0 -0 -0 -0 -0 -0 -0 0 0 0 0 0 0 0 0 -0 -0 0 0 0 0 0 0 0 0 0 0 0 0 0 0 0 0 0 0 0 0 -0 -0 -0 -0
-0 0 -0 -0 0 -0 -0 -0 -0 -0 -0 0 0 0 0 0 0 0 0 -0 -0 -0 -0 -0 0 0 0 0 0 0 0 -0 0 0 0 0 0 0 0 0 0 0 0 -0 -0
0 0 0 -0 0 0 0 0 0 0 -0 0 0 0 0 0 0 0 0 0 -0 -0 -0 -0 -0 0 0 0 0 0 0 0 -0 0 0 0 0 0 0 0 0 0 0 0 0
0 0 0 -0 0 0 0 0 0 0 0 0 0 0 0 0 0 0 0 0 -0 -0 -0 -0 -0 0 0 0 0 0 -0 -0 0 0 0 0 0 0 0 0 0 0 0 0 0
-0 -0 -0 -0 0 0 0 0 0 -0 0 0 0 0 0 0 -0 -0 0 0 0 -0 -0 -0 -0 0 0 0 0 -0 -0 -0 0 0 0 0 0 -0 0 0 0 0 0 0 0
-0 -0 -0 -0 0 0 0 0 0 0 0 0 0 0 0 -0 0 0 -0 -0 -0 -0 0 -0 0 0 0 -0 -0 -0 -0 -0 0 0 -0 0 -0 -0 -0 -0 -0 0 0 -0 -0
-0 -0 -0 -0 0 0 0 0 0 0 0 0 0 0 0 0 -0 0 -0 -0 -0 0 0 0 0 0 0 0 -0 -0 0 0 -0 -0 0 0 -0 -0 -0 -0 -0 -0 -0 -0 0
-0 -0 -0 -0 0 0 0 0 0 0 0 0 0 0 0 -0 -0 -0 0 -0 0 0 0 0 0 0 -0 0 0 0 -0 -0 -0 0 0 -0 -0 -0 -0 -0 -0 -0 -0 -0 -0
-0 -0 -0 -0 0 0 0 0 0 0 0 -0 -0 0 -0 0 0 0 -0 -0 0 0 0 0 -0 -0 -0 -0 0 -0 -0 0 -0 -0 0 -0 -0 -0 -0 -0 -0 -0 -0 -0 -0
-0 -0 -0 -0 -0 0 -0 0 0 0 -0 -0 0 -0 0 -0 -0 -0 -0 0 0 0 0 0 -0 -0 -0 -0 0 -0 -0 0 -0 -0 -0 -0 0 -0 -0 -0 -0 -0 -0 -0 -0
-0 -0 -0 -0 -0 -0 -0 0 0 0 -0 0 0 0 -0 -0 0 -0 0 0 0 0 -0 -0 -0 -0 -0 -0 -0 0 0 0 -0 0 0 0 0 -0 -0 -0 -0 -0 -0 -0 -0
-0 -0 0 0 0 0 0 0 -0 0 -0 0 0 0 0 0 0 -0 0 0 0 -0 -0 -0 -0 -0 -0 -0 0 -0 -0 -0 0 0 -0 -0 0 -0 -0 -0 -0 -0 -0 -0 -0
-0 0 -0 0 0 0 0 0 -0 0 -0 0 0 0 0 0 0 0 0 -0 -0 -0 -0 0 -0 -0 0 -0 -0 0 -0 -0 0 0 -0 0 -0 -0 -0 0 -0 -0 0 -0 -0
-0 0 0 0 0 -0 0 -0 0 0 -0 0 -0 0 0 -0 0 0 -0 -0 0 -0 0 -0 -0 0 0 0 -0 0 -0 0 -0 0 -0 -0 -0 -0 -0 0 0 -0 -0 -0 -0
0 0 0 0 0 -0 0 0 0 0 0 0 0 0 0 -0 0 -0 0 0 -0 0 0 0 -0 0 0 -0 0 -0 0 -0 -0 0 0 -0 0 -0 -0 -0 0 0 -0 0 -0
0 0 0 0 0 0 0 0 0 0 0 0 0 0 0 0 -0 -0 0 0 0 0 -0 0 -0 0 0 0 0 0 -0 0 0 0 0 0 0 0 0 0 0 -0 -0 -0 -0
0 0 0 0 0 0 0 0 0 0 0 0 0 0 0 0 0 0 0 0 0 0 0 0 0 -0 0 0 0 0 0 -0 -0 0 0 0 -0 0 0 0 0 0 0 0 0
0 0 0 0 0 0 0 0 0 0 0 0 0 0 0 0 0 0 0 0 0 0 0 0 0 0 0 -0 -0 0 0 0 0 0 0 -0 0 0 0 0 1 0 0 0 0
0 0 0 0 0 0 0 0 0 0 0 0 0 0 0 0 0 0 0 0 0 0 0 0 0 0 0 0 0 0 0 0 0 0 0 0 0 0 0 0 0 0 0 1 1
0 0 0 0 0 0 0 0 0 0 0 0 0 0 0 0 0 0 0 0 0 0 0 0 -0 0 0 0 0 0 0 0 0 0 0 0 0 0 0 0 0 0 1 1 1
0 0 0 0 0 0 0 0 0 0 0 0 0 0 0 0 0 0 0 0 0 0 0 0 0 0 -0 0 0 -0 -0 0 -0 -0 -0 -0 -0 0 0 0 0 0 1 1 2
0 0 0 0 0 0 0 0 0 0 0 0 0 0 0 0 0 0 0 0 0 0 0 0 0 0 -0 0 -0 -0 -0 0 -0 -0 -0 -0 0 0 0 0 1 0 0 1 1
Wind_Speed_500mb
25 20 19 18 18 18 17 16 18 19 21 21 23 28 21 22 17 18 16 15 19 27 23 23 19 14 15 8 10 6 10 7 11 4 13 21 17 17 12 25 15 22 6 22 60
27 21 17 16 15 13 11 11 13 17 19 19 22 26 20 21 19 25 14 25 21 28 35 24 17 19 6 5 6 10 8 10 10 11 10 17 17 25 18 27 17 20 15 51 67
27 19 14 12 12 10 7 6 9 13 15 15 19 23 19 16 11 2 13 28 26 27 26 17 14 12 7 6 3 5 8 7 7 8 8 1 10 16 11 17 22 29 45 57 69
27 16 11 10 10 9 5 2 6 9 11 12 16 19 19 11 2 12 11 23 22 29 23 11 8 10 8 14 3 3 4 3 4 1 1 1 3 5 6 11 2 29 48 66 68
27 14 8 9 9 8 5 1 3 6 8 11 13 18 15 11 2 9 13 23 24 25 14 5 11 15 16 15 4 9 7 6 3 4 6 4 10 10 7 6 15 36 50 59 61
26 12 8 9 10 10 6 2 1 4 6 9 11 18 10 15 8 3 12 21 20 20 13 8 8 18 16 19 11 22 17 18 12 14 5 10 18 4 13 14 28 39 47 52 55
24 12 9 10 14 15 12 6 2 4 6 9 10 17 11 2 6 14 18 26 21 12 7 7 13 16 22 18 15 14 9 6 9 15 8 24 15 15 16 19 28 35 41 44 47
24 11 7 9 12 13 12 10 5 5 8 10 12 17 5 19 6 11 19 16 16 11 9 4 13 18 14 23 10 8 13 10 13 11 11 15 12 14 18 25 27 33 39 41 45
23 8 5 7 10 13 14 7 9 9 10 13 14 10 12 14 8 20 19 10 14 12 13 14 14 13 19 21 10 6 19 16 10 7 7 12 16 22 24 26 32 34 36 39 43
23 6 3 5 8 13 13 9 10 12 16 17 11 8 7 14 15 20 17 14 9 13 9 9 9 18 15 13 21 33 30 26 15 10 11 10 15 24 28 28 34 35 36 38 42
24 6 4 3 7 12 11 8 5 5 12 5 17 5 16 17 18 17 18 12 10 14 19 4 18 18 21 22 22 29 26 22 13 11 9 8 19 27 35 31 34 36 42 44 45
26 8 7 4 5 9 5 2 9 5 6 9 12 7 11 18 15 20 19 15 15 23 6 19 24 17 13 13 24 19 18 12 15 8 12 5 10 21 31 29 35 40 41 45 48
26 10 8 9 8 9 6 6 20 4 10 12 12 16 16 20 18 31 30 16 19 22 23 21 27 26 26 22 20 15 12 20 19 4 7 11 16 18 22 25 29 33 39 44 52
27 11 8 9 10 6 7 10 22 5 12 18 17 14 17 16 13 21 32 20 15 22 17 17 14 18 21 22 21 27 14 11 14 16 6 14 12 18 24 30 30 37 41 48 57
30 12 10 15 8 5 12 15 13 5 4 10 16 11 16 18 25 20 31 18 19 15 13 7 10 16 26 23 12 11 8 9 10 11 11 9 6 15 21 25 30 42 48 53 59
31 16 14 18 19 17 8 12 3 14 9 14 12 19 22 21 13 19 24 18 10 15 23 33 35 17 24 15 14 3 7 6 6 7 7 8 15 20 9 7 29 41 49 50 50
30 14 13 14 9 10 9 3 13 1 8 14 12 16 21 23 17 25 28 30 17 17 21 17 18 10 14 20 10 17 26 10 10 11 17 8 9 18 15 16 10 30 39 43 44
27 8 13 17 14 11 5 12 3 8 4 7 7 13 16 18 13 21 20 22 24 21 15 10 23 9 4 10 16 9 21 10 6 1 20 4 6 12 9 14 18 20 18 20 25
15 6 10 13 11 12 13 16 6 5 3 4 12 18 17 14 8 19 25 15 4 23 11 6 10 12 9 3 10 9 16 17 11 5 14 12 13 19 19 24 25 25 24 25 17
6 8 4 7 11 9 13 3 3 4 5 9 10 7 16 20 17 15 18 6 10 15 11 5 9 8 12 7 8 12 9 13 13 6 11 18 8 21 28 25 21 23 25 27 22
3 9 4 5 11 14 13 3 1 1 6 7 2 7 5 10 19 15 5 12 4 14 16 8 8 6 13 9 18 8 17 6 9 9 12 15 10 23 26 22 22 23 22 24 25
6 10 6 8 15 6 11 1 3 4 2 5 6 4 2 5 8 9 9 8 5 18 11 3 13 13 18 7 3 4 11 20 15 14 3 18 16 15 12 17 15 18 21 22 23
16 7 10 7 13 16 7 7 6 6 2 5 11 6 2 2 5 2 6 7 6 12 8 9 7 16 13 21 13 4 6 6 10 13 9 17 13 12 18 13 12 18 21 20 21
10 5 4 3 4 14 6 10 9 5 6 6 5 9 13 13 7 3 10 7 6 4 4 6 8 12 15 19 11 7 5 7 18 12 7 17 9 18 18 18 15 14 17 19 18
11 6 5 2 7 9 8 4 12 11 4 4 8 9 17 14 14 12 8 14 13 13 8 11 17 2 3 6 10 16 18 16 19 19 19 20 6 10 4 2 5 10 20 22 20
11 10 9 10 9 12 8 7 11 3 6 7 5 8 10 21 9 10 10 12 15 17 16 12 13 10 18 13 18 24 27 27 27 27 28 28 32 16 2 3 8 15 29 27 21
15 11 9 3 6 9 3 3 1 8 5 1 10 13 12 8 15 15 17 14 9 19 22 18 15 14 23 11 19 25 36 36 31 26 21 24 19 13 7 9 15 23 29 25 24
Wind_Direction_500mb
333 322 317 315 307 296 279 266 257 249 239 231 228 239 244 257 265 269 262 235 204 175 160 165 165 179 191 244 241 272 246 88 66 54 117 156 165 148 142 144 162 182 181 162 165
337 328 326 326 322 309 292 268 251 243 236 227 227 233 242 258 279 279 258 231 190 173 155 158 166 165 193 234 232 252 288 42 28 45 61 160 173 155 159 162 158 163 140 151 160
343 333 334 338 340 333 311 270 238 234 229 223 221 226 240 252 294 56 261 209 185 166 164 156 160 191 252 229 122 9 1 13 6 343 342 198 192 171 185 190 178 170 155 161 164
350 339 337 344 353 5 2 281 218 218 214 213 212 214 232 217 213 341 209 192 169 157 164 176 158 241 261 37 73 218 29 292 313 359 277 270 129 206 220 29 38 173 167 164 170
355 343 345 353 359 8 8 35 200 205 196 200 197 199 214 231 325 343 192 171 167 166 183 237 306 339 7 350 40 298 8 274 261 325 328 209 168 101 75 18 162 158 162 168 173
356 358 13 24 30 27 19 14 158 192 190 189 187 190 188 224 318 126 185 172 169 179 208 269 323 332 292 318 323 324 310 288 248 238 192 136 129 219 66 99 133 152 163 169 174
5 25 49 59 54 48 44 48 135 180 170 163 170 184 208 64 280 152 169 164 169 175 213 269 299 310 321 311 336 311 314 99 198 202 153 128 120 80 111 127 136 152 164 170 173
14 43 66 52 46 44 42 49 86 132 141 145 163 162 207 226 237 161 156 170 168 170 180 236 318 298 290 306 228 309 221 32 110 171 155 232 104 133 142 135 142 159 167 177 179
16 39 51 41 39 31 29 56 76 104 126 134 141 161 151 190 164 172 159 184 188 199 239 270 301 299 296 316 300 99 353 20 84 199 163 243 119 154 159 147 150 167 172 181 181
12 14 5 19 22 17 21 75 94 103 115 107 144 229 184 156 166 163 166 148 191 185 200 251 259 284 240 319 347 328 337 344 12 122 225 182 125 159 171 163 160 169 178 182 184
2 341 296 341 0 10 33 105 107 152 209 316 142 46 127 137 130 168 171 176 187 229 255 195 283 279 350 342 329 312 310 319 30 119 242 197 154 175 177 174 164 174 178 180 186
357 325 270 277 321 339 7 258 350 317 176 210 208 197 155 160 154 174 173 217 230 248 168 247 253 20 348 306 304 313 303 356 106 114 199 164 143 166 183 188 179 175 185 182 185
358 327 254 251 276 284 274 282 339 320 242 146 170 178 182 182 191 181 181 210 242 244 253 272 295 310 308 310 316 279 315 347 342 316 205 230 131 159 196 202 190 189 188 191 191
353 335 247 239 287 248 268 296 344 227 202 134 175 164 172 198 176 173 187 208 224 253 255 277 303 304 303 302 297 296 13 315 306 297 21 341 112 136 169 194 196 196 195 198 201
340 329 249 227 231 282 266 296 334 230 165 127 130 168 181 215 130 184 191 216 235 197 242 116 300 298 285 298 300 9 10 328 309 267 255 108 262 102 151 180 195 202 201 206 206
333 312 248 241 251 262 273 309 269 230 93 152 148 181 179 199 164 142 186 219 279 252 236 266 285 280 281 288 275 269 241 244 228 259 186 53 289 97 95 125 179 195 208 210 210
334 297 234 221 217 225 287 264 224 82 148 158 177 188 217 164 151 176 189 202 225 219 210 217 209 203 233 247 212 233 253 234 205 195 55 79 234 55 84 106 110 174 199 209 214
336 265 206 219 227 247 251 239 251 89 120 119 197 190 210 167 186 191 197 221 220 261 276 262 153 175 101 299 332 321 321 317 277 343 109 163 119 86 76 106 125 119 141 175 199
339 201 187 223 230 217 242 243 107 107 76 204 156 198 188 189 263 202 217 229 213 208 269 222 134 126 52 349 296 118 241 18 292 182 262 95 113 131 128 120 117 117 118 106 105
344 161 203 201 186 187 252 339 133 2 308 217 241 277 191 188 205 206 177 155 213 215 266 90 273 122 114 233 105 301 359 237 204 269 288 133 214 113 140 130 128 104 101 95 91
73 211 231 151 170 234 252 98 231 359 274 262 305 172 101 157 225 206 173 129 203 169 215 282 266 132 238 26 340 243 218 222 317 311 304 240 144 116 146 136 120 120 115 96 88
17 226 298 201 223 242 235 349 4 273 255 230 278 284 288 167 166 214 203 37 149 168 194 56 307 287 357 86 343 318 315 272 280 166 304 311 92 129 131 133 122 118 113 101 96
338 304 336 188 236 213 168 222 274 270 205 216 222 258 184 192 226 252 122 91 162 213 192 166 247 290 171 173 179 251 47 302 274 281 233 296 101 121 147 149 119 130 124 114 106
335 261 160 63 344 303 241 208 217 192 242 315 269 232 202 212 216 208 180 129 148 195 208 227 274 297 322 1 5 218 235 312 290 271 242 241 41 143 168 162 145 145 142 125 119
357 54 359 342 122 325 283 323 242 221 194 300 195 245 231 229 216 216 207 154 166 154 211 266 267 270 313 283 280 300 288 274 272 296 291 293 238 282 181 97 126 181 167 149 136
1 349 331 291 290 273 161 179 273 281 291 170 293 315 244 239 301 249 234 222 202 182 214 218 259 242 267 237 255 272 273 266 265 269 273 268 268 280 75 219 162 187 174 160 137
14 348 318 145 266 255 250 309 298 315 168 333 6 307 225 83 321 289 279 293 274 221 213 236 238 238 267 284 283 267 254 254 257 256 252 257 263 121 152 142 127 146 154 140 129
Wind_Speed_850mb
25 20 19 18 18 18 17 16 18 19 21 21 23 28 21 22 17 18 16 15 19 27 23 23 19 14 15 8 10 6 10 7 11 4 13 21 17 17 12 25 15 22 6 22 60
27 21 17 16 15 13 11 11 13 17 19 19 22 26 20 21 19 25 14 25 21 28 35 24 17 19 6 5 6 10 8 10 10 11 10 17 17 25 18 27 17 20 15 51 67
27 19 14 12 12 10 7 6 9 13 15 15 19 23 19 16 11 2 13 28 26 27 26 17 14 12 7 6 3 5 8 7 7 8 8 1 10 16 11 17 22 29 45 57 69
27 16 11 10 10 9 5 2 6 9 11 12 16 19 19 11 2 12 11 23 22 29 23 11 8 10 8 14 3 3 4 3 4 1 1 1 3 5 6 11 2 29 48 66 68
27 14 8 9 9 8 5 1 3 6 8 11 13 18 15 11 2 9 13 23 24 25 14 5 11 15 16 15 4 9 7 6 3 4 6 4 10 10 7 6 15 36 50 59 61
26 12 8 9 10 10 6 2 1 4 6 9 11 18 10 15 8 3 12 21 20 20 13 8 8 18 16 19 11 22 17 18 12 14 5 10 18 4 13 14 28 39 47 52 55
24 12 9 10 14 15 12 6 2 4 6 9 10 17 11 2 6 14 18 26 21 12 7 7 13 16 22 18 15 14 9 6 9 15 8 24 15 15 16 19 28 35 41 44 47
24 11 7 9 12 13 12 10 5 5 8 10 12 17 5 19 6 11 19 16 16 11 9 4 13 18 14 23 10 8 13 10 13 11 11 15 12 14 18 25 27 33 39 41 45
23 8 5 7 10 13 14 7 9 9 10 13 14 10 12 14 8 20 19 10 14 12 13 14 14 13 19 21 10 6 19 16 10 7 7 12 16 22 24 26 32 34 36 39 43
23 6 3 5 8 13 13 9 10 12 16 17 11 8 7 14 15 20 17 14 9 13 9 9 9 18 15 13 21 33 30 26 15 10 11 10 15 24 28 28 34 35 36 38 42
24 6 4 3 7 12 11 8 5 5 12 5 17 5 16 17 18 17 18 12 10 14 19 4 18 18 21 22 22 29 26 22 13 11 9 8 19 27 35 31 34 36 42 44 45
26 8 7 4 5 9 5 2 9 5 6 9 12 7 11 18 15 20 19 15 15 23 6 19 24 17 13 13 24 19 18 12 15 8 12 5 10 21 31 29 35 40 41 45 48
26 10 8 9 8 9 6 6 20 4 10 12 12 16 16 20 18 31 30 16 19 22 23 21 27 26 26 22 20 15 12 20 19 4 7 11 16 18 22 25 29 33 39 44 52
27 11 8 9 10 6 7 10 22 5 12 18 17 14 17 16 13 21 32 20 15 22 17 17 14 18 21 22 21 27 14 11 14 16 6 14 12 18 24 30 30 37 41 48 57
30 12 10 15 8 5 12 15 13 5 4 10 16 11 16 18 25 20 31 18 19 15 13 7 10 16 26 23 12 11 8 9 10 11 11 9 6 15 21 25 30 42 48 53 59
31 16 14 18 19 17 8 12 3 14 9 14 12 19 22 21 13 19 24 18 10 15 23 33 35 17 24 15 14 3 7 6 6 7 7 8 15 20 9 7 29 41 49 50 50
30 14 13 14 9 10 9 3 13 1 8 14 12 16 21 23 17 25 28 30 17 17 21 17 18 10 14 20 10 17 26 10 10 11 17 8 9 18 15 16 10 30 39 43 44
27 8 13 17 14 11 5 12 3 8 4 7 7 13 16 18 13 21 20 22 24 21 15 10 23 9 4 10 16 9 21 10 6 1 20 4 6 12 9 14 18 20 18 20 25
15 6 10 13 11 12 13 16 6 5 3 4 12 18 17 14 8 19 25 15 4 23 11 6 10 12 9 3 10 9 16 17 11 5 14 12 13 19 19 24 25 25 24 25 17
6 8 4 7 11 9 13 3 3 4 5 9 10 7 16 20 17 15 18 6 10 15 11 5 9 8 12 7 8 12 9 13 13 6 11 18 8 21 28 25 21 23 25 27 22
3 9 4 5 11 14 13 3 1 1 6 7 2 7 5 10 19 15 5 12 4 14 16 8 8 6 13 9 18 8 17 6 9 9 12 15 10 23 26 22 22 23 22 24 25
6 10 6 8 15 6 11 1 3 4 2 5 6 4 2 5 8 9 9 8 5 18 11 3 13 13 18 7 3 4 11 20 15 14 3 18 16 15 12 17 15 18 21 22 23
16 7 10 7 13 16 7 7 6 6 2 5 11 6 2 2 5 2 6 7 6 12 8 9 7 16 13 21 13 4 6 6 10 13 9 17 13 12 18 13 12 18 21 20 21
10 5 4 3 4 14 6 10 9 5 6 6 5 9 13 13 7 3 10 7 6 4 4 6 8 12 15 19 11 7 5 7 18 12 7 17 9 18 18 18 15 14 17 19 18
11 6 5 2 7 9 8 4 12 11 4 4 8 9 17 14 14 12 8 14 13 13 8 11 17 2 3 6 10 16 18 16 19 19 19 20 6 10 4 2 5 10 20 22 20
11 10 9 10 9 12 8 7 11 3 6 7 5 8 10 21 9 10 10 12 15 17 16 12 13 10 18 13 18 24 27 27 27 27 28 28 32 16 2 3 8 15 29 27 21
15 11 9 3 6 9 3 3 1 8 5 1 10 13 12 8 15 15 17 14 9 19 22 18 15 14 23 11 19 25 36 36 31 26 21 24 19 13 7 9 15 23 29 25 24
Wind_Direction_850mb
333 322 317 315 307 296 279 266 257 249 239 231 228 239 244 257 265 269 262 235 204 175 160 165 165 179 191 244 241 272 246 88 66 54 117 156 165 148 142 144 162 182 181 162 165
337 328 326 326 322 309 292 268 251 243 236 227 227 233 242 258 279 279 258 231 190 173 155 158 166 165 193 234 232 252 288 42 28 45 61 160 173 155 159 162 158 163 140 151 160
343 333 334 338 340 333 311 270 238 234 229 223 221 226 240 252 294 56 261 209 185 166 164 156 160 191 252 229 122 9 1 13 6 343 342 198 192 171 185 190 178 170 155 161 164
350 339 337 344 353 5 2 281 218 218 214 213 212 214 232 217 213 341 209 192 169 157 164 176 158 241 261 37 73 218 29 292 313 359 277 270 129 206 220 29 38 173 167 164 170
355 343 345 353 359 8 8 35 200 205 196 200 197 199 214 231 325 343 192 171 167 166 183 237 306 339 7 350 40 298 8 274 261 325 328 209 168 101 75 18 162 158 162 168 173
356 358 13 24 30 27 19 14 158 192 190 189 187 190 188 224 318 126 185 172 169 179 208 269 323 332 292 318 323 324 310 288 248 238 192 136 129 219 66 99 133 152 163 169 174
5 25 49 59 54 48 44 48 135 180 170 163 170 184 208 64 280 152 169 164 169 175 213 269 299 310 321 311 336 311 314 99 198 202 153 128 120 80 111 127 136 152 164 170 173
14 43 66 52 46 44 42 49 86 132 141 145 163 162 207 226 237 161 156 170 168 170 180 236 318 298 290 306 228 309 221 32 110 171 155 232 104 133 142 135 142 159 167 177 179
16 39 51 41 39 31 29 56 76 104 126 134 141 161 151 190 164 172 159 184 188 199 239 270 301 299 296 316 300 99 353 20 84 199 163 243 119 154 159 147 150 167 172 181 181
12 14 5 19 22 17 21 75 94 103 115 107 144 229 184 156 166 163 166 148 191 185 200 251 259 284 240 319 347 328 337 344 12 122 225 182 125 159 171 163 160 169 178 182 184
2 341 296 341 0 10 33 105 107 152 209 316 142 46 127 137 130 168 171 176 187 229 255 195 283 279 350 342 329 312 310 319 30 119 242 197 154 175 177 174 164 174 178 180 186
357 325 270 277 321 339 7 258 350 317 176 210 208 197 155 160 154 174 173 217 230 248 168 247 253 20 348 306 304 313 303 356 106 114 199 164 143 166 183 188 179 175 185 182 185
358 327 254 251 276 284 274 282 339 320 242 146 170 178 182 182 191 181 181 210 242 244 253 272 295 310 308 310 316 279 315 347 342 316 205 230 131 159 196 202 190 189 188 191 191
353 335 247 239 287 248 268 296 344 227 202 134 175 164 172 198 176 173 187 208 224 253 255 277 303 304 303 302 297 296 13 315 306 297 21 341 112 136 169 194 196 196 195 198 201
340 329 249 227 231 282 266 296 334 230 165 127 130 168 181 215 130 184 191 216 235 197 242 116 300 298 285 298 300 9 10 328 309 267 255 108 262 102 151 180 195 202 201 206 206
333 312 248 241 251 262 273 309 269 230 93 152 148 181 179 199 164 142 186 219 279 252 236 266 285 280 281 288 275 269 241 244 228 259 186 53 289 97 95 125 179 195 208 210 210
334 297 234 221 217 225 287 264 224 82 148 158 177 188 217 164 151 176 189 202 225 219 210 217 209 203 233 247 212 233 253 234 205 195 55 79 234 55 84 106 110 174 199 209 214
336 265 206 219 227 247 251 239 251 89 120 119 197 190 210 167 186 191 197 221 220 261 276 262 153 175 101 299 332 321 321 317 277 343 109 163 119 86 76 106 125 119 141 175 199
339 201 187 223 230 217 242 243 107 107 76 204 156 198 188 189 263 202 217 229 213 208 269 222 134 126 52 349 296 118 241 18 292 182 262 95 113 131 128 120 117 117 118 106 105
344 161 203 201 186 187 252 339 133 2 308 217 241 277 191 188 205 206 177 155 213 215 266 90 273 122 114 233 105 301 359 237 204 269 288 133 214 113 140 130 128 104 101 95 91
73 211 231 151 170 234 252 98 231 359 274 262 305 172 101 157 225 206 173 129 203 169 215 282 266 132 238 26 340 243 218 222 317 311 304 240 144 116 146 136 120 120 115 96 88
17 226 298 201 223 242 235 349 4 273 255 230 278 284 288 167 166 214 203 37 149 168 194 56 307 287 357 86 343 318 315 272 280 166 304 311 92 129 131 133 122 118 113 101 96
338 304 336 188 236 213 168 222 274 270 205 216 222 258 184 192 226 252 122 91 162 213 192 166 247 290 171 173 179 251 47 302 274 281 233 296 101 121 147 149 119 130 124 114 106
335 261 160 63 344 303 241 208 217 192 242 315 269 232 202 212 216 208 180 129 148 195 208 227 274 297 322 1 5 218 235 312 290 271 242 241 41 143 168 162 145 145 142 125 119
357 54 359 342 122 325 283 323 242 221 194 300 195 245 231 229 216 216 207 154 166 154 211 266 267 270 313 283 280 300 288 274 272 296 291 293 238 282 181 97 126 181 167 149 136
1 349 331 291 290 273 161 179 273 281 291 170 293 315 244 239 301 249 234 222 202 182 214 218 259 242 267 237 255 272 273 266 265 269 273 268 268 280 75 219 162 187 174 160 137
14 348 318 145 266 255 250 309 298 315 168 333 6 307 225 83 321 289 279 293 274 221 213 236 238 238 267 284 283 267 254 254 257 256 252 257 263 121 152 142 127 146 154 140 129